• în România
  • Lista ţărilor
  • Pe 7 zile
  • Temperatura apei
  • Hartă satelitară
  • Meteo pe hartă
  • Widget-uri
  • user-avatar
    Intrare

    Meteo pe oră la Sopron

    Astăzi, 22 Iulie, Duminică

    Timp Temperatura Precipitaţii Vânt Presiune Umiditate
    00:00 +20°C° 0,5 mm 2 m/s 741 mmHg 85%
    01:00 +19°C° 0,5 mm 2 m/s 741 mmHg 87%
    02:00 +19°C° 0,2 mm 2 m/s 741 mmHg 87%
    03:00 +19°C° 0,2 mm 2 m/s 741 mmHg 87%
    04:00 +19°C° 0,2 mm 2 m/s 741 mmHg 86%
    05:00 +20°C° 0,1 mm 2 m/s 741 mmHg 84%
    06:00 +20°C° 0,1 mm 2 m/s 741 mmHg 81%
    07:00 +21°C° 0,1 mm 3 m/s 742 mmHg 78%
    08:00 +24°C° 0,1 mm 3 m/s 742 mmHg 71%
    09:00 +25°C° 0,1 mm 3 m/s 741 mmHg 64%
    10:00 +27°C° 0,1 mm 4 m/s 741 mmHg 57%
    11:00 +27°C° 0,3 mm 4 m/s 741 mmHg 56%
    12:00 +28°C° 0,3 mm 4 m/s 741 mmHg 55%
    13:00 +28°C° 0,3 mm 4 m/s 741 mmHg 54%
    14:00 +28°C° 0,4 mm 4 m/s 741 mmHg 55%
    15:00 +28°C° 0,4 mm 4 m/s 741 mmHg 56%
    16:00 +28°C° 0,4 mm 4 m/s 741 mmHg 57%
    17:00 +26°C° 0,1 mm 4 m/s 741 mmHg 62%
    18:00 +25°C° 0,1 mm 4 m/s 741 mmHg 67%
    19:00 +24°C° 0,1 mm 3 m/s 741 mmHg 71%
    20:00 +22°C° 0,1 mm 4 m/s 741 mmHg 74%
    21:00 +21°C° 0,1 mm 4 m/s 741 mmHg 77%
    22:00 +20°C° 0,1 mm 4 m/s 741 mmHg 80%
    23:00 +20°C° 0,1 mm 4 m/s 741 mmHg 81%

    Mâine, 23 Iulie, Luni

    Timp Temperatura Precipitaţii Vânt Presiune Umiditate
    00:00 +20°C° 0,1 mm 4 m/s 741 mmHg 82%
    01:00 +20°C° 0,1 mm 5 m/s 741 mmHg 83%
    02:00 +20°C° 0,2 mm 5 m/s 741 mmHg 84%
    03:00 +19°C° 0,2 mm 5 m/s 741 mmHg 84%
    04:00 +19°C° 0,2 mm 5 m/s 741 mmHg 85%
    05:00 +20°C° 0,3 mm 5 m/s 742 mmHg 83%
    06:00 +20°C° 0,3 mm 6 m/s 742 mmHg 82%
    07:00 +20°C° 0,3 mm 6 m/s 742 mmHg 80%
    08:00 +21°C° 0,4 mm 6 m/s 742 mmHg 79%
    09:00 +21°C° 0,4 mm 6 m/s 742 mmHg 78%
    10:00 +21°C° 0,4 mm 6 m/s 742 mmHg 77%
    11:00 +23°C° 0,1 mm 6 m/s 742 mmHg 67%
    12:00 +27°C° 0,1 mm 6 m/s 742 mmHg 57%
    13:00 +29°C° 0,1 mm 6 m/s 742 mmHg 47%
    14:00 +29°C° 0 mm 7 m/s 742 mmHg 47%
    15:00 +29°C° 0 mm 7 m/s 742 mmHg 48%
    16:00 +29°C° 0 mm 7 m/s 742 mmHg 48%
    17:00 +28°C° 0 mm 6 m/s 742 mmHg 53%
    18:00 +27°C° 0 mm 5 m/s 742 mmHg 57%
    19:00 +26°C° 0 mm 4 m/s 743 mmHg 62%
    20:00 +25°C° 0 mm 4 m/s 743 mmHg 65%
    21:00 +22°C° 0 mm 4 m/s 743 mmHg 69%
    22:00 +21°C° 0 mm 4 m/s 744 mmHg 72%
    23:00 +21°C° 0 mm 4 m/s 744 mmHg 74%

    Poimâine, 24 Iulie, Marţi

    Timp Temperatura Precipitaţii Vânt Presiune Umiditate
    00:00 +20°C° 0 mm 4 m/s 744 mmHg 76%
    01:00 +20°C° 0 mm 4 m/s 744 mmHg 77%
    02:00 +20°C° 0 mm 4 m/s 744 mmHg 78%
    03:00 +19°C° 0 mm 4 m/s 744 mmHg 79%
    04:00 +19°C° 0 mm 4 m/s 744 mmHg 80%
    05:00 +20°C° 0 mm 4 m/s 744 mmHg 76%
    06:00 +21°C° 0 mm 5 m/s 744 mmHg 72%
    07:00 +23°C° 0 mm 5 m/s 744 mmHg 67%
    08:00 +25°C° 0 mm 5 m/s 744 mmHg 61%
    09:00 +26°C° 0 mm 5 m/s 744 mmHg 55%
    10:00 +28°C° 0 mm 5 m/s 744 mmHg 49%
    11:00 +29°C° 0 mm 5 m/s 744 mmHg 47%
    12:00 +29°C° 0 mm 5 m/s 743 mmHg 45%
    13:00 +30°C° 0 mm 5 m/s 743 mmHg 42%
    14:00 +30°C° 0 mm 5 m/s 743 mmHg 43%
    15:00 +30°C° 0 mm 5 m/s 743 mmHg 43%
    16:00 +30°C° 0 mm 5 m/s 742 mmHg 43%
    17:00 +29°C° 0 mm 4 m/s 742 mmHg 49%
    18:00 +27°C° 0 mm 4 m/s 742 mmHg 56%
    19:00 +26°C° 0 mm 3 m/s 742 mmHg 62%
    20:00 +25°C° 0 mm 3 m/s 743 mmHg 66%
    21:00 +24°C° 0 mm 3 m/s 743 mmHg 70%
    22:00 +21°C° 0 mm 3 m/s 743 mmHg 75%
    23:00 +21°C° 0 mm 3 m/s 743 mmHg 77%

    25 Iulie, Miercuri

    Timp Temperatura Precipitaţii Vânt Presiune Umiditate
    00:00 +20°C° 0 mm 3 m/s 743 mmHg 79%
    01:00 +20°C° 0 mm 3 m/s 743 mmHg 81%
    02:00 +20°C° 0 mm 3 m/s 743 mmHg 83%
    03:00 +19°C° 0 mm 2 m/s 743 mmHg 85%
    04:00 +19°C° 0 mm 2 m/s 743 mmHg 86%
    05:00 +20°C° 0 mm 3 m/s 744 mmHg 81%
    06:00 +21°C° 0 mm 3 m/s 744 mmHg 75%
    07:00 +24°C° 0 mm 3 m/s 744 mmHg 70%
    08:00 +25°C° 0 mm 4 m/s 744 mmHg 63%
    09:00 +27°C° 0 mm 4 m/s 744 mmHg 56%
    10:00 +29°C° 0 mm 4 m/s 744 mmHg 49%
    11:00 +29°C° 0 mm 4 m/s 744 mmHg 46%
    12:00 +30°C° 0 mm 4 m/s 743 mmHg 43%
    13:00 +32°C° 0 mm 4 m/s 743 mmHg 40%
    14:00 +32°C° 0 mm 4 m/s 743 mmHg 41%
    15:00 +32°C° 0 mm 4 m/s 743 mmHg 41%
    16:00 +32°C° 0 mm 4 m/s 743 mmHg 41%
    17:00 +30°C° 0 mm 4 m/s 743 mmHg 48%
    18:00 +28°C° 0 mm 3 m/s 743 mmHg 55%
    19:00 +27°C° 0 mm 3 m/s 743 mmHg 61%
    20:00 +25°C° 0,3 mm 3 m/s 743 mmHg 66%
    21:00 +24°C° 0,3 mm 3 m/s 743 mmHg 72%
    22:00 +22°C° 0,3 mm 3 m/s 744 mmHg 77%
    23:00 +21°C° 0,4 mm 3 m/s 744 mmHg 79%

    26 Iulie, Joi

    Timp Temperatura Precipitaţii Vânt Presiune Umiditate
    00:00 +21°C° 0,4 mm 3 m/s 744 mmHg 81%
    01:00 +20°C° 0,4 mm 3 m/s 744 mmHg 83%
    02:00 +20°C° 0,2 mm 3 m/s 744 mmHg 84%
    03:00 +20°C° 0,2 mm 3 m/s 744 mmHg 85%
    04:00 +19°C° 0,2 mm 3 m/s 744 mmHg 86%
    05:00 +21°C° 0 mm 3 m/s 744 mmHg 81%
    06:00 +22°C° 0 mm 4 m/s 744 mmHg 76%
    07:00 +23°C° 0 mm 4 m/s 744 mmHg 71%
    08:00 +25°C° 0 mm 4 m/s 744 mmHg 64%
    09:00 +27°C° 0 mm 4 m/s 744 mmHg 56%
    10:00 +29°C° 0 mm 5 m/s 744 mmHg 49%
    11:00 +30°C° 0 mm 5 m/s 744 mmHg 46%
    12:00 +30°C° 0 mm 5 m/s 744 mmHg 43%
    13:00 +32°C° 0 mm 4 m/s 744 mmHg 41%
    14:00 +32°C° 0 mm 5 m/s 744 mmHg 42%
    15:00 +32°C° 0 mm 5 m/s 744 mmHg 43%
    16:00 +32°C° 0 mm 5 m/s 744 mmHg 44%
    17:00 +30°C° 0 mm 4 m/s 744 mmHg 50%
    18:00 +29°C° 0 mm 4 m/s 744 mmHg 56%
    19:00 +27°C° 0 mm 3 m/s 744 mmHg 62%
    20:00 +26°C° 0,4 mm 3 m/s 744 mmHg 68%
    21:00 +25°C° 0,4 mm 3 m/s 744 mmHg 74%
    22:00 +22°C° 0,4 mm 3 m/s 745 mmHg 80%
    23:00 +22°C° 0 mm 3 m/s 744 mmHg 81%

    27 Iulie, Vineri

    Timp Temperatura Precipitaţii Vânt Presiune Umiditate
    00:00 +21°C° 0 mm 3 m/s 744 mmHg 82%
    01:00 +21°C° 0 mm 3 m/s 744 mmHg 84%
    02:00 +21°C° 0 mm 3 m/s 744 mmHg 84%
    03:00 +20°C° 0 mm 3 m/s 744 mmHg 85%
    04:00 +20°C° 0 mm 3 m/s 744 mmHg 86%
    05:00 +21°C° 0 mm 3 m/s 745 mmHg 82%
    06:00 +22°C° 0 mm 3 m/s 745 mmHg 79%
    07:00 +23°C° 0 mm 4 m/s 745 mmHg 75%
    08:00 +26°C° 0,1 mm 4 m/s 745 mmHg 68%
    09:00 +28°C° 0,1 mm 4 m/s 745 mmHg 61%
    10:00 +29°C° 0,1 mm 4 m/s 744 mmHg 54%
    11:00 +30°C° 0 mm 4 m/s 744 mmHg 50%
    12:00 +32°C° 0 mm 4 m/s 744 mmHg 46%
    13:00 +33°C° 0 mm 3 m/s 744 mmHg 43%
    14:00 +33°C° 0 mm 3 m/s 743 mmHg 43%
    15:00 +33°C° 0 mm 3 m/s 743 mmHg 44%
    16:00 +33°C° 0 mm 3 m/s 743 mmHg 45%
    17:00 +31°C° 0,1 mm 3 m/s 743 mmHg 50%
    18:00 +29°C° 0,1 mm 2 m/s 743 mmHg 56%
    19:00 +28°C° 0,1 mm 2 m/s 743 mmHg 62%
    20:00 +27°C° 0,1 mm 2 m/s 743 mmHg 66%
    21:00 +26°C° 0,1 mm 2 m/s 744 mmHg 70%
    22:00 +25°C° 0,1 mm 2 m/s 744 mmHg 74%
    23:00 +24°C° 0 mm 2 m/s 744 mmHg 76%
    Arată mai mult